Погода в Шиллонге

Индия     25°34′09″N   91°52′27″E
темп.,
°C
ветер,
м/с
пор.,
м/с
влажн.,
%
обл.,
%
осадки,
мм/ч
давл.,
гПа
погр.,
м
12 апреля, пн
пн1223:30+16юз226295 0.0 101648
02:30+15юз25665 0.0 1015113
05:30+15юз36690 0.0 1017147
08:30+23юз511280 0.0 10172389
11:30+26зюз68245 0.0 10153155
14:30+25зюз572626 0.0 10123120
17:30+20юз37410 0.0 1013253
20:30+17ююз234994 0.0 101649
13 апреля, вт
вт1323:30+16юз244725 0.0 101658
02:30+16юз246583 0.0 101462
05:30+16юз37540 0.0 1015153
08:30+24юз47323 0.0 10152926
11:30+26юз572452 0.0 10133709
14:30+25юз672783 0.0 10103062
17:30+21юз48406 0.0 1011388
20:30+18юз224552 0.0 101444
14 апреля, ср
ср1423:30+18юз34380 0.0 101366
02:30+16юз48520 0.0 1013185
05:30+16ююз37650 0.0 1013169
08:30+23юз47420 0.0 10141360
11:30+27юз592535 0.0 10123749
14:30+26юз782935 0.0 10093449
17:30+21юз36470 0.0 1010273
20:30+19зюз224484 0.0 101242
15 апреля, чт
чт1523:30+19ююз4105756 0.1 1012352
02:30+16ююз49813 0.2 1011211
05:30+15ююз39784 0.2 1012246
08:30+22ююз484774 0.0 10131097
11:30+26ююз593660 0.0 10112066
14:30+25ююз684398 0.0 10091645
17:30+21ююз374975 0.0 1008319
20:30+16ююз41076100 0.4 1013305
16 апреля, пт
пт1623:30+17ююз41061100 0.4 1011309
02:30+15ююз3874100 0.0 1011212
05:30+15юз3793100 0.2 1013221
08:30+21юз3661100 0.3 1013954
11:30+24ююз594285 1.0 10112139
14:30+23ююз57513 0.9 10061466
17:30+15с1282100 4.9 101155
20:30+15ю41080100 6.3 1015390